| time (UTC) | temp F | wind direction | speed knots | gust knots | rain 1hr in | rain 24hr in | rain mn in | humidity % | barometer mb |
| 20260507232506 | 66 | 298 | 1.7 | 7.0 | 0.00 | 0.78 | 0.54 | 74 | 1011.9 |
| 20260507232006 | 66 | 320 | 2.6 | 7.0 | 0.00 | 0.78 | 0.54 | 74 | 1011.9 |
| 20260507231004 | 67 | 290 | 2.6 | 7.8 | 0.00 | 0.78 | 0.54 | 73 | 1011.9 |
| 20260507230506 | 67 | 288 | 2.6 | 7.8 | 0.00 | 0.78 | 0.54 | 73 | 1011.9 |
| 20260507230005 | 67 | 284 | 2.6 | 8.7 | 0.00 | 0.78 | 0.54 | 74 | 1011.9 |
| 20260507225505 | 67 | 293 | 2.6 | 10.4 | 0.00 | 0.78 | 0.54 | 74 | 1011.9 |
| 20260507225006 | 67 | 321 | 1.7 | 10.4 | 0.00 | 0.78 | 0.54 | 75 | 1011.9 |
| 20260507224505 | 67 | 297 | 2.6 | 7.0 | 0.00 | 0.78 | 0.54 | 74 | 1011.9 |
| 20260507224006 | 67 | 277 | 1.7 | 5.2 | 0.00 | 0.78 | 0.54 | 74 | 1011.9 |
| 20260507223506 | 67 | 273 | 2.6 | 7.0 | 0.00 | 0.78 | 0.54 | 74 | 1011.9 |
| 20260507223006 | 68 | 286 | 2.6 | 10.4 | 0.00 | 0.78 | 0.54 | 74 | 1011.9 |
| 20260507222505 | 68 | 298 | 0.9 | 6.1 | 0.00 | 0.78 | 0.54 | 76 | 1011.9 |
| 20260507221505 | 68 | 297 | 1.7 | 7.0 | 0.00 | 0.78 | 0.54 | 76 | 1011.9 |
| 20260507221005 | 68 | 13 | 4.3 | 8.7 | 0.00 | 0.78 | 0.54 | 75 | 1011.9 |
| 20260507220505 | 68 | 346 | 3.5 | 7.0 | 0.00 | 0.78 | 0.54 | 75 | 1011.9 |
| 20260507220005 | 68 | 296 | 1.7 | 10.4 | 0.00 | 0.78 | 0.54 | 76 | 1011.9 |
| 20260507215506 | 68 | 307 | 2.6 | 10.4 | 0.00 | 0.78 | 0.54 | 77 | 1011.9 |
| 20260507215005 | 68 | 275 | 2.6 | 8.7 | 0.00 | 0.78 | 0.54 | 77 | 1011.9 |
| 20260507214506 | 68 | 298 | 4.3 | 8.7 | 0.00 | 0.78 | 0.54 | 77 | 1011.9 |
| 20260507214006 | 69 | 313 | 2.6 | 7.0 | 0.00 | 0.78 | 0.54 | 76 | 1011.9 |
| 20260507212504 | 68 | 242 | 3.5 | 8.7 | 0.00 | 0.78 | 0.54 | 77 | 1011.9 |
| 20260507211505 | 67 | 271 | 2.6 | 6.1 | 0.00 | 0.78 | 0.54 | 80 | 1011.9 |
| 20260507211005 | 67 | 343 | 2.6 | 7.0 | 0.00 | 0.78 | 0.54 | 79 | 1011.9 |
| 20260507210505 | 67 | 281 | 0.9 | 6.1 | 0.00 | 0.78 | 0.54 | 79 | 1011.9 |
| 20260507205504 | 67 | 310 | 1.7 | 5.2 | 0.00 | 0.78 | 0.54 | 81 | 1011.9 |
| 20260507205006 | 67 | 297 | 3.5 | 7.0 | 0.00 | 0.78 | 0.54 | 80 | 1011.9 |
| 20260507204505 | 67 | 283 | 2.6 | 6.1 | 0.00 | 0.78 | 0.54 | 81 | 1011.9 |
| 20260507204005 | 67 | 284 | 2.6 | 5.2 | 0.00 | 0.78 | 0.54 | 82 | 1011.9 |
| 20260507203506 | 66 | 26 | 2.6 | 4.3 | 0.00 | 0.78 | 0.54 | 82 | 1011.9 |
| 20260507203005 | 67 | 345 | 1.7 | 4.3 | 0.00 | 0.78 | 0.54 | 82 | 1012.0 |
| 20260507202505 | 67 | 335 | 1.7 | 6.1 | 0.00 | 0.78 | 0.54 | 82 | 1012.0 |
| 20260507202006 | 67 | 295 | 2.6 | 7.0 | 0.00 | 0.78 | 0.54 | 81 | 1012.0 |
| 20260507201505 | 67 | 273 | 2.6 | 6.1 | 0.00 | 0.78 | 0.54 | 82 | 1012.0 |
| 20260507201006 | 66 | 327 | 0.9 | 2.6 | 0.00 | 0.78 | 0.54 | 84 | 1012.0 |
| 20260507200505 | 66 | 18 | 0.0 | 2.6 | 0.00 | 0.78 | 0.54 | 85 | 1012.0 |
| 20260507200005 | 65 | 284 | 0.0 | 6.1 | 0.00 | 0.78 | 0.54 | 86 | 1012.0 |
| 20260507195504 | 65 | 319 | 2.6 | 6.1 | 0.00 | 0.78 | 0.54 | 85 | 1012.0 |
| 20260507195006 | 65 | 11 | 0.0 | 2.6 | 0.00 | 0.78 | 0.54 | 87 | 1012.0 |
| 20260507194005 | 65 | 289 | 3.5 | 7.8 | 0.00 | 0.78 | 0.54 | 86 | 1012.0 |
| 20260507193505 | 65 | 309 | 2.6 | 7.8 | 0.00 | 0.78 | 0.54 | 86 | 1012.0 |
| 20260507193005 | 64 | 289 | 1.7 | 6.1 | 0.00 | 0.78 | 0.54 | 86 | 1012.0 |
| 20260507192504 | 64 | 298 | 2.6 | 7.0 | 0.00 | 0.78 | 0.54 | 86 | 1012.0 |
| 20260507192005 | 65 | 269 | 1.7 | 5.2 | 0.00 | 0.78 | 0.54 | 88 | 1012.0 |
| 20260507191005 | 64 | 358 | 1.7 | 4.3 | 0.00 | 0.78 | 0.54 | 89 | 1012.0 |
| 20260507190505 | 64 | 332 | 1.7 | 4.3 | 0.00 | 0.78 | 0.54 | 89 | 1012.0 |
| 20260507185505 | 63 | 331 | 2.6 | 6.1 | 0.00 | 0.78 | 0.54 | 89 | 1012.0 |
| 20260507185005 | 63 | 311 | 2.6 | 8.7 | 0.00 | 0.78 | 0.54 | 88 | 1012.0 |
| 20260507184505 | 64 | 325 | 2.6 | 8.7 | 0.00 | 0.78 | 0.54 | 88 | 1012.0 |
| 20260507184005 | 64 | 353 | 1.7 | 4.3 | 0.00 | 0.78 | 0.54 | 88 | 1012.0 |
| 20260507183005 | 66 | 28 | 0.9 | 2.6 | 0.00 | 0.78 | 0.54 | 86 | 1012.0 |
| 20260507182505 | 66 | 334 | 1.7 | 6.1 | 0.00 | 0.78 | 0.54 | 86 | 1012.0 |
| 20260507182004 | 66 | 330 | 0.9 | 2.6 | 0.00 | 0.78 | 0.54 | 86 | 1012.0 |
| 20260507181504 | 66 | 314 | 0.9 | 4.3 | 0.00 | 0.78 | 0.54 | 86 | 1012.0 |
| 20260507181005 | 66 | 8 | 0.9 | 4.3 | 0.00 | 0.78 | 0.54 | 87 | 1012.0 |
| 20260507180505 | 65 | 337 | 1.7 | 4.3 | 0.00 | 0.78 | 0.54 | 87 | 1012.0 |
| 20260507180006 | 65 | 36 | 1.7 | 4.3 | 0.00 | 0.78 | 0.54 | 88 | 1011.8 |
| 20260507175506 | 65 | 304 | 1.7 | 5.2 | 0.00 | 0.78 | 0.54 | 88 | 1011.8 |
| 20260507175005 | 65 | 296 | 1.7 | 5.2 | 0.00 | 0.78 | 0.54 | 88 | 1011.8 |
| 20260507174505 | 65 | 3 | 2.6 | 7.0 | 0.00 | 0.78 | 0.54 | 88 | 1011.8 |
| 20260507174005 | 66 | 355 | 0.9 | 5.2 | 0.00 | 0.78 | 0.54 | 87 | 1011.8 |
| 20260507173006 | 67 | 300 | 1.7 | 7.8 | 0.00 | 0.78 | 0.54 | 86 | 1011.8 |
| 20260507172505 | 67 | 304 | 2.6 | 6.1 | 0.00 | 0.78 | 0.54 | 86 | 1011.8 |
| 20260507172005 | 67 | 296 | 1.7 | 7.8 | 0.00 | 0.78 | 0.54 | 86 | 1011.8 |
| 20260507171505 | 67 | 275 | 1.7 | 6.1 | 0.00 | 0.78 | 0.54 | 86 | 1011.8 |
| 20260507171005 | 67 | 295 | 2.6 | 5.2 | 0.00 | 0.78 | 0.54 | 86 | 1011.8 |
| 20260507170005 | 68 | 313 | 0.9 | 6.1 | 0.00 | 0.78 | 0.54 | 85 | 1011.8 |
| 20260507165506 | 68 | 299 | 2.6 | 6.1 | 0.00 | 0.78 | 0.54 | 85 | 1011.8 |
| 20260507165005 | 69 | 332 | 0.9 | 6.1 | 0.00 | 0.78 | 0.54 | 86 | 1011.7 |
| 20260507164505 | 69 | 291 | 0.9 | 6.1 | 0.00 | 0.78 | 0.54 | 86 | 1011.7 |
| 20260507164005 | 68 | 301 | 2.6 | 7.0 | 0.00 | 0.78 | 0.54 | 86 | 1011.7 |
| 20260507163505 | 69 | 22 | 0.9 | 2.6 | 0.00 | 0.78 | 0.54 | 85 | 1011.7 |
| 20260507162505 | 69 | 276 | 2.6 | 6.1 | 0.00 | 0.78 | 0.54 | 83 | 1011.0 |
| 20260507162005 | 69 | 263 | 1.7 | 5.2 | 0.00 | 0.78 | 0.54 | 85 | 1011.0 |
| 20260507161505 | 68 | 310 | 1.7 | 5.2 | 0.00 | 0.78 | 0.54 | 85 | 1011.0 |
| 20260507161005 | 68 | 291 | 2.6 | 6.1 | 0.00 | 0.78 | 0.54 | 86 | 1011.0 |
| 20260507160505 | 68 | 297 | 1.7 | 5.2 | 0.00 | 0.78 | 0.54 | 86 | 1011.0 |
| 20260507160005 | 68 | 286 | 0.9 | 6.1 | 0.00 | 0.78 | 0.54 | 86 | 1011.0 |
| 20260507155505 | 68 | 309 | 1.7 | 6.1 | 0.00 | 0.78 | 0.54 | 86 | 1011.0 |
| 20260507155005 | 68 | 296 | 4.3 | 7.0 | 0.00 | 0.78 | 0.54 | 85 | 1011.0 |
| 20260507154505 | 68 | 19 | 1.7 | 5.2 | 0.00 | 0.78 | 0.54 | 86 | 1011.0 |
| 20260507153006 | 69 | 298 | 3.5 | 6.1 | 0.00 | 0.78 | 0.54 | 85 | 1011.0 |
| 20260507152505 | 69 | 276 | 1.7 | 7.0 | 0.00 | 0.78 | 0.54 | 87 | 1011.0 |
| 20260507152005 | 68 | 302 | 1.7 | 7.0 | 0.00 | 0.78 | 0.54 | 89 | 1011.0 |
| 20260507151505 | 68 | 275 | 1.7 | 5.2 | 0.00 | 0.78 | 0.54 | 88 | 1011.0 |
| 20260507151006 | 68 | 345 | 1.7 | 2.6 | 0.00 | 0.78 | 0.54 | 87 | 1011.0 |
| 20260507150506 | 69 | 278 | 1.7 | 2.6 | 0.00 | 0.78 | 0.54 | 88 | 1011.0 |
| 20260507150006 | 69 | 7 | 1.7 | 4.3 | 0.00 | 0.78 | 0.54 | 90 | 1011.5 |
| 20260507145504 | 69 | 291 | 0.9 | 4.3 | 0.00 | 0.78 | 0.54 | 90 | 1011.5 |
| 20260507145005 | 68 | 269 | 1.7 | 5.2 | 0.00 | 0.78 | 0.54 | 90 | 1011.5 |
| 20260507144504 | 68 | 26 | 0.9 | 2.6 | 0.00 | 0.78 | 0.54 | 92 | 1011.5 |
| 20260507143005 | 66 | 297 | 0.9 | 4.3 | 0.00 | 0.78 | 0.54 | 93 | 1011.5 |
| 20260507142505 | 66 | 295 | 0.9 | 4.3 | 0.00 | 0.78 | 0.54 | 93 | 1011.5 |
| 20260507141505 | 66 | 262 | 0.9 | 2.6 | 0.00 | 0.78 | 0.54 | 94 | 1011.0 |
| 20260507141007 | 66 | 291 | 0.0 | 1.7 | 0.00 | 0.78 | 0.54 | 94 | 1011.0 |
| 20260507140505 | 65 | 21 | 0.0 | 0.9 | 0.00 | 0.78 | 0.54 | 94 | 1011.0 |
| 20260507135505 | 64 | 262 | 0.9 | 1.7 | 0.01 | 0.78 | 0.54 | 94 | 1011.0 |
| 20260507135005 | 64 | 284 | 0.9 | 2.6 | 0.01 | 0.78 | 0.54 | 94 | 1011.0 |
| 20260507134506 | 64 | 355 | 0.0 | 0.9 | 0.01 | 0.78 | 0.54 | 94 | 1011.0 |
| 20260507134006 | 64 | 355 | 0.9 | 1.7 | 0.01 | 0.78 | 0.54 | 94 | 1011.0 |
| 20260507133505 | 64 | 285 | 0.0 | 0.9 | 0.01 | 0.78 | 0.54 | 94 | 1011.0 |
| 20260507132504 | 64 | 280 | 0.0 | 0.9 | 0.01 | 0.78 | 0.54 | 94 | 1011.0 |
| 20260507132006 | 64 | 280 | 0.0 | 2.6 | 0.01 | 0.78 | 0.54 | 94 | 1011.0 |
| 20260507131505 | 64 | 287 | 0.0 | 2.6 | 0.01 | 0.78 | 0.54 | 94 | 1011.0 |
| 20260507130504 | 64 | 79 | 0.0 | 0.9 | 0.02 | 0.78 | 0.54 | 94 | 1010.7 |
| 20260507130005 | 64 | 79 | 0.0 | 1.7 | 0.02 | 0.78 | 0.54 | 94 | 1010.7 |
| 20260507125005 | 63 | 296 | 1.7 | 2.6 | 0.01 | 0.77 | 0.53 | 94 | 1010.7 |
| 20260507124504 | 63 | 27 | 1.7 | 2.6 | 0.02 | 0.77 | 0.53 | 94 | 1010.7 |
| 20260507123505 | 63 | 7 | 0.9 | 1.7 | 0.02 | 0.77 | 0.53 | 94 | 1010.7 |
| 20260507123005 | 63 | 37 | 0.9 | 1.7 | 0.02 | 0.77 | 0.53 | 94 | 1010.7 |
| 20260507122005 | 63 | 47 | 0.0 | 0.9 | 0.02 | 0.77 | 0.53 | 94 | 1010.7 |
| 20260507121006 | 63 | 15 | 1.7 | 6.1 | 0.04 | 0.77 | 0.53 | 94 | 1010.7 |
| 20260507120006 | 63 | 325 | 0.9 | 2.6 | 0.03 | 0.76 | 0.52 | 94 | 1009.4 |
| 20260507115506 | 63 | 17 | 0.9 | 2.6 | 0.03 | 0.76 | 0.52 | 94 | 1009.4 |
| 20260507115005 | 63 | 33 | 1.7 | 4.3 | 0.03 | 0.76 | 0.52 | 94 | 1009.4 |
| 20260507114505 | 64 | 348 | 1.7 | 4.3 | 0.03 | 0.76 | 0.52 | 94 | 1009.4 |
| 20260507114006 | 64 | 18 | 1.7 | 5.2 | 0.03 | 0.76 | 0.52 | 94 | 1009.4 |
| 20260507113505 | 64 | 302 | 2.6 | 7.0 | 0.02 | 0.75 | 0.51 | 94 | 1009.4 |
| 20260507113005 | 64 | 306 | 0.9 | 2.6 | 0.02 | 0.75 | 0.51 | 94 | 1008.8 |
| 20260507112504 | 64 | 330 | 2.6 | 5.2 | 0.03 | 0.75 | 0.51 | 94 | 1008.8 |
| 20260507112005 | 64 | 294 | 0.0 | 0.0 | 0.03 | 0.75 | 0.51 | 94 | 1008.8 |
| 20260507111005 | 64 | 299 | 0.0 | 0.0 | 0.02 | 0.74 | 0.50 | 94 | 1008.8 |
| 20260507110506 | 64 | 324 | 0.0 | 0.0 | 0.01 | 0.73 | 0.49 | 94 | 1008.8 |
| 20260507110006 | 64 | 346 | 0.0 | 0.0 | 0.01 | 0.73 | 0.49 | 94 | 1008.8 |
| 20260507105505 | 64 | 117 | 0.0 | 0.0 | 0.01 | 0.73 | 0.49 | 94 | 1008.8 |
| 20260507105006 | 64 | 117 | 0.0 | 0.0 | 0.01 | 0.73 | 0.49 | 94 | 1008.8 |
| 20260507104505 | 64 | 117 | 0.0 | 0.0 | 0.01 | 0.73 | 0.49 | 94 | 1008.8 |
| 20260507104006 | 64 | 117 | 0.0 | 0.0 | 0.01 | 0.73 | 0.49 | 94 | 1008.8 |
| 20260507103005 | 64 | 117 | 0.0 | 0.0 | 0.01 | 0.73 | 0.49 | 94 | 1008.8 |
| 20260507102505 | 64 | 117 | 0.0 | 0.0 | 0.01 | 0.73 | 0.49 | 94 | 1008.8 |
| 20260507102006 | 64 | 117 | 0.0 | 0.0 | 0.01 | 0.72 | 0.48 | 94 | 1008.8 |
| 20260507101507 | 64 | 117 | 0.0 | 0.0 | 0.01 | 0.72 | 0.48 | 94 | 1008.8 |
| 20260507101006 | 64 | 117 | 0.0 | 0.0 | 0.01 | 0.72 | 0.48 | 94 | 1008.8 |
| 20260507100505 | 64 | 117 | 0.0 | 0.0 | 0.01 | 0.72 | 0.48 | 94 | 1008.8 |
| 20260507095505 | 64 | 117 | 0.0 | 0.0 | 0.01 | 0.72 | 0.48 | 94 | 1008.8 |
| 20260507095006 | 64 | 117 | 0.0 | 0.0 | 0.01 | 0.72 | 0.48 | 94 | 1008.8 |
| 20260507094506 | 64 | 117 | 0.0 | 0.0 | 0.01 | 0.72 | 0.48 | 94 | 1008.8 |
| 20260507094005 | 64 | 117 | 0.0 | 0.0 | 0.01 | 0.72 | 0.48 | 94 | 1008.8 |
| 20260507093505 | 64 | 117 | 0.0 | 0.0 | 0.01 | 0.72 | 0.48 | 94 | 1008.8 |
| 20260507093006 | 64 | 117 | 0.0 | 0.0 | 0.01 | 0.72 | 0.48 | 94 | 1009.8 |
| 20260507092505 | 64 | 117 | 0.0 | 0.0 | 0.01 | 0.72 | 0.48 | 94 | 1009.8 |
| 20260507092005 | 64 | 117 | 0.0 | 0.0 | 0.01 | 0.72 | 0.48 | 94 | 1009.8 |
| 20260507090505 | 64 | 117 | 0.0 | 0.0 | 0.01 | 0.71 | 0.47 | 94 | 1009.8 |
| 20260507090005 | 63 | 117 | 0.0 | 0.0 | 0.01 | 0.71 | 0.47 | 94 | 1009.8 |
| 20260507084505 | 63 | 24 | 0.0 | 0.0 | 0.02 | 0.71 | 0.47 | 94 | 1009.8 |
| 20260507084006 | 64 | 24 | 0.0 | 0.0 | 0.02 | 0.71 | 0.47 | 94 | 1009.8 |
| 20260507083505 | 63 | 24 | 0.0 | 0.0 | 0.03 | 0.71 | 0.47 | 94 | 1009.8 |
| 20260507083006 | 63 | 24 | 0.0 | 0.0 | 0.03 | 0.71 | 0.47 | 94 | 1009.8 |
| 20260507082505 | 63 | 24 | 0.0 | 0.0 | 0.03 | 0.71 | 0.47 | 94 | 1009.8 |
| 20260507082005 | 63 | 24 | 0.0 | 0.0 | 0.03 | 0.71 | 0.47 | 94 | 1009.8 |
| 20260507081505 | 63 | 24 | 0.0 | 0.0 | 0.03 | 0.71 | 0.47 | 94 | 1009.8 |
| 20260507081005 | 63 | 24 | 0.0 | 0.0 | 0.03 | 0.71 | 0.47 | 94 | 1009.8 |
| 20260507080506 | 63 | 24 | 0.0 | 0.0 | 0.02 | 0.70 | 0.46 | 94 | 1009.8 |
| 20260507080005 | 63 | 24 | 0.0 | 0.0 | 0.02 | 0.70 | 0.46 | 94 | 1010.2 |
| 20260507075005 | 63 | 24 | 0.0 | 0.0 | 0.02 | 0.70 | 0.46 | 94 | 1010.5 |
| 20260507074505 | 63 | 24 | 0.0 | 0.9 | 0.02 | 0.70 | 0.46 | 94 | 1010.5 |
| 20260507074006 | 64 | 24 | 0.0 | 0.9 | 0.02 | 0.70 | 0.46 | 94 | 1010.5 |
| 20260507073505 | 64 | 24 | 0.9 | 2.6 | 0.01 | 0.69 | 0.45 | 94 | 1010.5 |
| 20260507073005 | 64 | 330 | 0.0 | 2.6 | 0.00 | 0.68 | 0.44 | 94 | 1010.5 |
| 20260507072506 | 64 | 13 | 0.9 | 2.6 | 0.00 | 0.68 | 0.44 | 94 | 1010.5 |
| 20260507072005 | 64 | 12 | 0.9 | 1.7 | 0.00 | 0.68 | 0.44 | 93 | 1010.5 |
| 20260507071506 | 64 | 5 | 0.0 | 0.9 | 0.00 | 0.68 | 0.44 | 94 | 1010.5 |
| 20260507071005 | 64 | 299 | 0.0 | 0.9 | 0.00 | 0.68 | 0.44 | 93 | 1010.5 |
| 20260507070505 | 64 | 294 | 0.0 | 1.7 | 0.01 | 0.68 | 0.44 | 93 | 1010.5 |
| 20260507065506 | 64 | 94 | 0.0 | 1.7 | 0.03 | 0.68 | 0.44 | 93 | 1010.5 |
| 20260507065005 | 64 | 258 | 1.7 | 4.3 | 0.04 | 0.68 | 0.44 | 93 | 1010.5 |
| 20260507064005 | 64 | 22 | 0.9 | 2.6 | 0.07 | 0.68 | 0.44 | 93 | 1010.5 |
| 20260507063506 | 64 | 24 | 0.9 | 2.6 | 0.09 | 0.68 | 0.44 | 93 | 1010.5 |
| 20260507063006 | 64 | 28 | 0.0 | 1.7 | 0.11 | 0.68 | 0.44 | 93 | 1010.5 |
| 20260507062505 | 64 | 18 | 0.0 | 0.0 | 0.13 | 0.68 | 0.44 | 93 | 1010.5 |
| 20260507062005 | 64 | 16 | 0.0 | 0.0 | 0.14 | 0.68 | 0.44 | 93 | 1010.5 |
| 20260507061005 | 64 | 16 | 0.9 | 2.6 | 0.16 | 0.68 | 0.44 | 93 | 1011.0 |
| 20260507060505 | 64 | 36 | 0.0 | 0.9 | 0.18 | 0.68 | 0.44 | 93 | 1011.0 |
| 20260507060005 | 64 | 36 | 0.0 | 0.9 | 0.19 | 0.68 | 0.44 | 93 | 1012.0 |
| 20260507055505 | 64 | 36 | 0.0 | 0.9 | 0.19 | 0.67 | 0.43 | 94 | 1012.0 |
| 20260507055005 | 64 | 36 | 0.9 | 1.7 | 0.20 | 0.66 | 0.42 | 94 | 1012.0 |
| 20260507054505 | 64 | 17 | 0.0 | 1.7 | 0.20 | 0.64 | 0.40 | 93 | 1012.0 |
| 20260507054005 | 64 | 16 | 0.9 | 2.6 | 0.19 | 0.62 | 0.38 | 93 | 1012.0 |
| 20260507053505 | 64 | 15 | 0.9 | 2.6 | 0.20 | 0.61 | 0.37 | 93 | 1012.0 |
| 20260507053005 | 64 | 132 | 0.0 | 0.9 | 0.20 | 0.60 | 0.36 | 93 | 1012.0 |
| 20260507052506 | 64 | 132 | 0.0 | 1.7 | 0.24 | 0.58 | 0.34 | 93 | 1012.0 |
| 20260507052006 | 64 | 81 | 0.0 | 1.7 | 0.29 | 0.56 | 0.32 | 93 | 1012.0 |
| 20260507051506 | 64 | 13 | 0.9 | 1.7 | 0.29 | 0.54 | 0.30 | 93 | 1012.0 |
| 20260507051005 | 64 | 99 | 0.0 | 0.0 | 0.28 | 0.53 | 0.29 | 93 | 1012.6 |
| 20260507050505 | 64 | 99 | 0.0 | 0.0 | 0.28 | 0.52 | 0.28 | 93 | 1012.6 |
| 20260507050005 | 64 | 99 | 0.0 | 0.9 | 0.04 | 0.51 | 0.27 | 93 | 1012.6 |
| 20260507045505 | 64 | 12 | 0.0 | 1.7 | 0.02 | 0.49 | 0.25 | 93 | 1012.6 |
| 20260507045005 | 64 | 12 | 0.9 | 2.6 | 0.01 | 0.48 | 0.24 | 93 | 1012.6 |
| 20260507044504 | 64 | 121 | 0.0 | 2.6 | 0.23 | 0.46 | 0.22 | 93 | 1012.6 |
| 20260507043506 | 64 | 273 | 0.0 | 1.7 | 0.19 | 0.42 | 0.18 | 93 | 1012.6 |
| 20260507043006 | 64 | 34 | 0.9 | 1.7 | 0.18 | 0.41 | 0.17 | 93 | 1011.4 |
| 20260507042506 | 65 | 60 | 1.7 | 8.7 | 0.16 | 0.39 | 0.15 | 93 | 1011.4 |
| 20260507042006 | 65 | 324 | 1.7 | 6.1 | 0.11 | 0.33 | 0.09 | 93 | 1011.4 |
| 20260507041505 | 65 | 282 | 1.7 | 4.3 | 0.04 | 0.26 | 0.02 | 93 | 1011.4 |
| 20260507041005 | 65 | 346 | 1.7 | 2.6 | 0.03 | 0.25 | 0.01 | 93 | 1011.4 |
| 20260507040505 | 65 | 18 | 0.0 | 0.9 | 0.04 | 0.24 | 0.00 | 93 | 1011.4 |
| 20260507040005 | 65 | 232 | 0.0 | 1.7 | 0.06 | 0.24 | 0.00 | 93 | 1011.4 |
| 20260507035505 | 65 | 269 | 0.0 | 2.6 | 0.07 | 0.23 | 0.23 | 93 | 1011.4 |
| 20260507035005 | 65 | 11 | 0.9 | 2.6 | 0.07 | 0.23 | 0.23 | 93 | 1011.4 |
| 20260507034505 | 65 | 24 | 1.7 | 2.6 | 0.07 | 0.23 | 0.23 | 93 | 1011.4 |
| 20260507034005 | 65 | 14 | 0.9 | 1.7 | 0.07 | 0.23 | 0.23 | 93 | 1011.4 |
| 20260507033505 | 65 | 15 | 0.9 | 2.6 | 0.07 | 0.23 | 0.23 | 93 | 1011.4 |
| 20260507033007 | 65 | 44 | 0.0 | 0.9 | 0.07 | 0.23 | 0.23 | 93 | 1011.4 |
| 20260507032505 | 66 | 28 | 0.9 | 1.7 | 0.07 | 0.23 | 0.23 | 93 | 1011.4 |
| 20260507032005 | 66 | 28 | 0.0 | 1.7 | 0.07 | 0.23 | 0.23 | 93 | 1011.4 |
| 20260507031505 | 65 | 21 | 0.9 | 2.6 | 0.06 | 0.22 | 0.22 | 93 | 1011.4 |
| 20260507031005 | 66 | 113 | 2.6 | 7.0 | 0.06 | 0.22 | 0.22 | 93 | 1011.4 |
| 20260507030005 | 67 | 35 | 0.9 | 5.2 | 0.06 | 0.21 | 0.21 | 92 | 1011.4 |
| 20260507025504 | 69 | 26 | 2.6 | 6.1 | 0.05 | 0.20 | 0.20 | 93 | 1011.4 |
| 20260507025005 | 70 | 3 | 1.7 | 7.8 | 0.02 | 0.17 | 0.17 | 93 | 1011.4 |
| 20260507024505 | 70 | 268 | 0.0 | 0.0 | 0.01 | 0.16 | 0.16 | 93 | 1011.4 |
| 20260507024006 | 70 | 265 | 0.0 | 0.0 | 0.01 | 0.16 | 0.16 | 93 | 1011.4 |
| 20260507023505 | 70 | 251 | 0.0 | 0.0 | 0.01 | 0.16 | 0.16 | 93 | 1011.4 |
| 20260507022505 | 70 | 260 | 0.0 | 0.0 | 0.01 | 0.16 | 0.16 | 93 | 1011.4 |
| 20260507022005 | 70 | 260 | 0.0 | 0.0 | 0.01 | 0.16 | 0.16 | 93 | 1011.4 |
| 20260507021505 | 70 | 260 | 0.0 | 0.0 | 0.01 | 0.16 | 0.16 | 93 | 1011.4 |
| 20260507021006 | 70 | 260 | 0.0 | 0.0 | 0.01 | 0.16 | 0.16 | 93 | 1011.4 |
| 20260507020505 | 70 | 253 | 0.0 | 0.0 | 0.01 | 0.16 | 0.16 | 93 | 1011.4 |
| 20260507020005 | 70 | 162 | 0.0 | 0.0 | 0.01 | 0.16 | 0.16 | 93 | 1011.4 |
| 20260507015005 | 70 | 186 | 0.0 | 0.0 | 0.00 | 0.15 | 0.15 | 93 | 1011.4 |
| 20260507014005 | 70 | 171 | 0.0 | 0.0 | 0.00 | 0.15 | 0.15 | 93 | 1011.4 |
| 20260507013505 | 70 | 171 | 0.0 | 0.0 | 0.00 | 0.15 | 0.15 | 93 | 1011.4 |
| 20260507012506 | 70 | 171 | 0.0 | 0.0 | 0.00 | 0.15 | 0.15 | 93 | 1011.4 |
| 20260507012005 | 71 | 171 | 0.0 | 0.0 | 0.00 | 0.15 | 0.15 | 93 | 1011.4 |
| 20260507010506 | 71 | 171 | 0.0 | 0.0 | 0.01 | 0.15 | 0.15 | 93 | 1011.4 |
| 20260507010005 | 71 | 171 | 0.0 | 0.0 | 0.01 | 0.15 | 0.15 | 92 | 1011.4 |
| 20260507005505 | 71 | 171 | 0.0 | 0.0 | 0.01 | 0.15 | 0.15 | 92 | 1011.4 |
| 20260507004505 | 71 | 144 | 0.0 | 0.9 | 0.03 | 0.15 | 0.15 | 92 | 1011.4 |
| 20260507004005 | 71 | 118 | 0.0 | 0.9 | 0.03 | 0.15 | 0.15 | 92 | 1011.4 |
| 20260507003505 | 71 | 118 | 0.0 | 0.9 | 0.03 | 0.15 | 0.15 | 93 | 1011.4 |
| 20260507003006 | 71 | 118 | 0.0 | 0.9 | 0.03 | 0.15 | 0.15 | 92 | 1011.7 |
| 20260507002505 | 71 | 202 | 0.0 | 0.0 | 0.03 | 0.15 | 0.15 | 92 | 1011.7 |
| 20260507002005 | 71 | 202 | 0.0 | 1.7 | 0.03 | 0.15 | 0.15 | 92 | 1011.7 |
| 20260507001505 | 71 | 202 | 0.0 | 1.7 | 0.03 | 0.15 | 0.15 | 92 | 1011.7 |
| 20260507001006 | 71 | 207 | 0.0 | 2.6 | 0.02 | 0.14 | 0.14 | 92 | 1011.7 |
| 20260507000505 | 71 | 237 | 0.9 | 2.6 | 0.02 | 0.14 | 0.14 | 92 | 1011.7 |
| 20260507000005 | 71 | 200 | 0.0 | 0.9 | 0.02 | 0.14 | 0.14 | 92 | 1011.7 |
| 20260506235505 | 71 | 199 | 0.0 | 0.9 | 0.02 | 0.14 | 0.14 | 92 | 1011.7 |
| 20260506235007 | 71 | 199 | 0.0 | 0.9 | 0.02 | 0.14 | 0.14 | 92 | 1011.7 |
| 20260506234505 | 71 | 199 | 0.0 | 0.9 | 0.03 | 0.13 | 0.13 | 92 | 1011.7 |
| 20260506234005 | 71 | 199 | 0.0 | 0.9 | 0.06 | 0.12 | 0.12 | 92 | 1011.0 |
| 20260506233005 | 71 | 199 | 0.0 | 0.9 | 0.12 | 0.12 | 0.12 | 92 | 1011.0 |